Regional Weather Roundup
Issued by NWS

Home | Current Version | Previous Version | Text Only | Print | Product List | Glossary Off
Versions: 1 2 3 4 5 6 7 8 9 10 11 12 13 14 15 16 17 18 19 20 21 22 23 24 25 26 27 28 29 30 31 32 33 34 35 36 37 38 39 40 41 42 43 44 45 46 47 48 49 50

000
ASUS43 KFSD 280310
RWRSD

WEATHER ROUNDUP FOR SOUTH DAKOTA
NATIONAL WEATHER SERVICE SIOUX FALLS SD
900 PM CST SAT DEC 27 2014

NOTE: "FAIR" INDICATES FEW OR NO CLOUDS BELOW 12,000 FEET WITH NO
SIGNIFICANT WEATHER AND/OR OBSTRUCTIONS TO VISIBILITY.


SDZ001>005-009-010-012>017-280400-
NORTHWEST AND NORTH CENTRAL SOUTH DAKOTA

CITY           SKY/WX    TMP DP  RH WIND       PRES   REMARKS
BUFFALO          N/A     23  16  74 W7        29.92F WCI  15
FAITH            N/A     17  10  74 W8        30.01S WCI   7
MOBRIDGE       PTCLDY    15  12  88 CALM      30.01S
$$

SDZ012>016-024>037-041>051-057-063-072>074-280400-
SOUTHWEST AND SOUTH CENTRAL SOUTH DAKOTA

CITY           SKY/WX    TMP DP  RH WIND       PRES   REMARKS
RAPID CTY ARPT CLEAR     14   7  73 W3        30.03S
PIERRE         CLEAR     18  12  77 W3        30.06F
CUSTER         CLEAR     11   5  77 CALM      29.94F
ELLSWORTH AFB  CLEAR     17   8  67 W5        30.02F WCI  10
PHILIP         CLEAR     15  10  80 W8        30.07F WCI   4
PINE RIDGE     CLEAR     13   5  70 W9        30.06S WCI   1
SPEARFISH      FAIR      19  10  68 W7        29.99F WCI  10
WINNER         FAIR      20  11  68 SW10      30.09S WCI   9
$$

SDZ004>011-016>023-039-040-280400-
NORTHEAST SOUTH DAKOTA

CITY           SKY/WX    TMP DP  RH WIND       PRES   REMARKS
ABERDEEN       CLOUDY    21  16  81 SW9       30.05F WCI  11
WATERTOWN      CLEAR      8   5  87 S3        30.05F
SISSETON         N/A     21  16  81 W15       30.04F WCI   8
$$

SDZ017-020-022-023-036>040-048>070-280400-
SOUTHEAST SOUTH DAKOTA

CITY           SKY/WX    TMP DP  RH WIND       PRES   REMARKS
SIOUX FALLS    PTCLDY    10   8  92 SW3       30.13F
HURON          PTCLDY    13   9  84 S7        30.09F WCI   3
CHAMBERLAIN    PTCLDY    13   8  80 CALM      30.09F
MITCHELL       CLEAR     14  10  84 SW6       30.13F WCI   5
YANKTON        CLEAR     16  12  86 SW5       30.17S WCI   9
$$

ABBREVIATIONS USED IN REMARKS
   TC - TEMPERATURE IN CELSIUS
  WCI - WIND CHILL INDEX
   HX - HEAT INDEX
  VSB - VISIBILITY



USA.gov is the U.S. government's official web portal to all federal, state and local government web resources and services.